• In Deutschland
  • Länderverzeichnis
  • Für 7 Tage
  • Wassertemperatur
  • Satellitenkarten
  • Wetterkarte
  • Widgets
  • user-avatar
    Anmelden

    Stündliche Wetter Rustawi

    Heute, 12 Dezember, Dienstag

    Zeit Temperatur Niederschläge Wind Luftdruck Luftfeuchtigkeit
    00:00 +5°C° 0 mm 2 m/S 734 mmHg 68%
    01:00 +5°C° 0 mm 2 m/S 734 mmHg 67%
    02:00 +5°C° 0 mm 1 m/S 734 mmHg 66%
    03:00 +5°C° 0 mm 1 m/S 734 mmHg 64%
    04:00 +5°C° 0 mm 1 m/S 734 mmHg 64%
    05:00 +5°C° 0 mm 1 m/S 734 mmHg 63%
    06:00 +5°C° 0 mm 1 m/S 734 mmHg 63%
    07:00 +6°C° 0 mm 1 m/S 734 mmHg 59%
    08:00 +6°C° 0 mm 1 m/S 734 mmHg 56%
    09:00 +7°C° 0 mm 1 m/S 734 mmHg 53%
    10:00 +9°C° 0 mm 1 m/S 734 mmHg 49%
    11:00 +10°C° 0 mm 1 m/S 733 mmHg 46%
    12:00 +11°C° 0 mm 1 m/S 733 mmHg 42%
    13:00 +11°C° 0 mm 1 m/S 733 mmHg 42%
    14:00 +12°C° 0 mm 1 m/S 732 mmHg 42%
    15:00 +12°C° 0 mm 1 m/S 732 mmHg 42%
    16:00 +11°C° 0 mm 1 m/S 732 mmHg 46%
    17:00 +9°C° 0 mm 1 m/S 733 mmHg 50%
    18:00 +8°C° 0 mm 1 m/S 733 mmHg 54%
    19:00 +8°C° 0 mm 1 m/S 733 mmHg 54%
    20:00 +7°C° 0 mm 1 m/S 733 mmHg 54%
    21:00 +7°C° 0 mm 1 m/S 733 mmHg 55%
    22:00 +7°C° 0 mm 1 m/S 733 mmHg 54%
    23:00 +7°C° 0 mm 1 m/S 733 mmHg 54%

    Morgen, 13 Dezember, Mittwoch

    Zeit Temperatur Niederschläge Wind Luftdruck Luftfeuchtigkeit
    00:00 +7°C° 0 mm 1 m/S 733 mmHg 54%
    01:00 +7°C° 0 mm 1 m/S 733 mmHg 54%
    02:00 +6°C° 0 mm 1 m/S 732 mmHg 54%
    03:00 +6°C° 0 mm 1 m/S 732 mmHg 54%
    04:00 +6°C° 0 mm 1 m/S 732 mmHg 54%
    05:00 +6°C° 0 mm 1 m/S 732 mmHg 54%
    06:00 +6°C° 0 mm 1 m/S 732 mmHg 54%
    07:00 +7°C° 0 mm 1 m/S 732 mmHg 51%
    08:00 +8°C° 0 mm 1 m/S 732 mmHg 48%
    09:00 +9°C° 0 mm 1 m/S 732 mmHg 45%
    10:00 +10°C° 0 mm 1 m/S 731 mmHg 42%
    11:00 +11°C° 0 mm 1 m/S 731 mmHg 39%
    12:00 +13°C° 0 mm 1 m/S 730 mmHg 36%
    13:00 +13°C° 0 mm 1 m/S 730 mmHg 37%
    14:00 +13°C° 0 mm 1 m/S 730 mmHg 38%
    15:00 +13°C° 0 mm 1 m/S 729 mmHg 39%
    16:00 +11°C° 0 mm 1 m/S 730 mmHg 44%
    17:00 +10°C° 0 mm 1 m/S 730 mmHg 48%
    18:00 +7°C° 0 mm 0 m/S 730 mmHg 53%
    19:00 +7°C° 0 mm 0 m/S 730 mmHg 55%
    20:00 +6°C° 0 mm 0 m/S 730 mmHg 56%
    21:00 +6°C° 0 mm 0 m/S 730 mmHg 57%
    22:00 +6°C° 0 mm 0 m/S 730 mmHg 59%
    23:00 +5°C° 0 mm 0 m/S 730 mmHg 61%

    übermorgen, 14 Dezember, Donnerstag

    Zeit Temperatur Niederschläge Wind Luftdruck Luftfeuchtigkeit
    00:00 +5°C° 0 mm 0 m/S 730 mmHg 62%
    01:00 +5°C° 0 mm 0 m/S 730 mmHg 64%
    02:00 +5°C° 0 mm 0 m/S 730 mmHg 65%
    03:00 +4°C° 0 mm 0 m/S 730 mmHg 67%
    04:00 +4°C° 0 mm 0 m/S 730 mmHg 68%
    05:00 +4°C° 0 mm 0 m/S 729 mmHg 69%
    06:00 +4°C° 0 mm 0 m/S 729 mmHg 71%
    07:00 +4°C° 0 mm 0 m/S 729 mmHg 68%
    08:00 +5°C° 0 mm 0 m/S 730 mmHg 66%
    09:00 +6°C° 0 mm 0 m/S 730 mmHg 63%
    10:00 +8°C° 0 mm 1 m/S 729 mmHg 60%
    11:00 +9°C° 0 mm 1 m/S 729 mmHg 58%
    12:00 +10°C° 0 mm 1 m/S 728 mmHg 55%
    13:00 +10°C° 0 mm 1 m/S 728 mmHg 56%
    14:00 +9°C° 0 mm 2 m/S 728 mmHg 57%
    15:00 +9°C° 0 mm 2 m/S 728 mmHg 58%
    16:00 +9°C° 0 mm 1 m/S 728 mmHg 66%
    17:00 +7°C° 0 mm 1 m/S 728 mmHg 74%
    18:00 +6°C° 0 mm 1 m/S 729 mmHg 82%
    19:00 +6°C° 0 mm 1 m/S 729 mmHg 84%
    20:00 +5°C° 0 mm 1 m/S 729 mmHg 86%
    21:00 +5°C° 0 mm 1 m/S 729 mmHg 88%
    22:00 +4°C° 0 mm 0 m/S 729 mmHg 88%
    23:00 +4°C° 0 mm 0 m/S 728 mmHg 88%

    15 Dezember, Freitag

    Zeit Temperatur Niederschläge Wind Luftdruck Luftfeuchtigkeit
    00:00 +5°C° 0 mm 0 m/S 728 mmHg 88%
    01:00 +4°C° 0 mm 0 m/S 728 mmHg 88%
    02:00 +4°C° 0 mm 0 m/S 728 mmHg 88%
    03:00 +5°C° 0 mm 1 m/S 728 mmHg 87%
    04:00 +5°C° 0 mm 1 m/S 728 mmHg 87%
    05:00 +5°C° 0 mm 1 m/S 728 mmHg 86%
    06:00 +5°C° 0 mm 1 m/S 728 mmHg 85%
    07:00 +5°C° 0 mm 1 m/S 728 mmHg 80%
    08:00 +6°C° 0 mm 1 m/S 728 mmHg 76%
    09:00 +7°C° 0 mm 1 m/S 728 mmHg 71%
    10:00 +8°C° 0 mm 1 m/S 728 mmHg 66%
    11:00 +9°C° 0 mm 1 m/S 728 mmHg 60%
    12:00 +11°C° 0 mm 1 m/S 727 mmHg 55%
    13:00 +11°C° 0 mm 1 m/S 727 mmHg 54%
    14:00 +11°C° 0 mm 1 m/S 727 mmHg 54%
    15:00 +11°C° 0 mm 1 m/S 727 mmHg 53%
    16:00 +10°C° 0 mm 1 m/S 728 mmHg 59%
    17:00 +7°C° 0 mm 0 m/S 728 mmHg 64%
    18:00 +6°C° 0 mm 0 m/S 729 mmHg 70%
    19:00 +6°C° 0 mm 0 m/S 729 mmHg 70%
    20:00 +6°C° 0 mm 0 m/S 729 mmHg 69%
    21:00 +6°C° 0 mm 1 m/S 730 mmHg 69%
    22:00 +6°C° 0 mm 1 m/S 730 mmHg 69%
    23:00 +6°C° 0 mm 1 m/S 730 mmHg 68%

    16 Dezember, Samstag

    Zeit Temperatur Niederschläge Wind Luftdruck Luftfeuchtigkeit
    00:00 +6°C° 0 mm 1 m/S 730 mmHg 68%
    01:00 +6°C° 0 mm 1 m/S 730 mmHg 67%
    02:00 +6°C° 0 mm 1 m/S 730 mmHg 66%
    03:00 +5°C° 0 mm 1 m/S 731 mmHg 65%
    04:00 +5°C° 0 mm 1 m/S 731 mmHg 63%
    05:00 +5°C° 0 mm 1 m/S 731 mmHg 62%
    06:00 +5°C° 0 mm 1 m/S 731 mmHg 60%
    07:00 +6°C° 0 mm 1 m/S 731 mmHg 57%
    08:00 +7°C° 0 mm 1 m/S 731 mmHg 53%
    09:00 +8°C° 0 mm 1 m/S 731 mmHg 49%
    10:00 +9°C° 0 mm 1 m/S 731 mmHg 45%
    11:00 +11°C° 0 mm 1 m/S 731 mmHg 41%
    12:00 +12°C° 0 mm 1 m/S 730 mmHg 38%
    13:00 +12°C° 0 mm 1 m/S 730 mmHg 39%
    14:00 +12°C° 0 mm 1 m/S 730 mmHg 40%
    15:00 +12°C° 0 mm 1 m/S 730 mmHg 41%
    16:00 +11°C° 0 mm 1 m/S 730 mmHg 48%
    17:00 +9°C° 0 mm 1 m/S 731 mmHg 54%
    18:00 +8°C° 0 mm 1 m/S 731 mmHg 60%
    19:00 +7°C° 0 mm 1 m/S 731 mmHg 62%
    20:00 +7°C° 0 mm 1 m/S 732 mmHg 64%
    21:00 +6°C° 0 mm 1 m/S 732 mmHg 66%
    22:00 +6°C° 0 mm 1 m/S 732 mmHg 68%
    23:00 +6°C° 0 mm 1 m/S 732 mmHg 70%

    17 Dezember, Sonntag

    Zeit Temperatur Niederschläge Wind Luftdruck Luftfeuchtigkeit
    00:00 +6°C° 0 mm 1 m/S 732 mmHg 72%
    01:00 +5°C° 0 mm 1 m/S 732 mmHg 73%
    02:00 +5°C° 0 mm 1 m/S 732 mmHg 73%
    03:00 +5°C° 0 mm 1 m/S 732 mmHg 74%
    04:00 +5°C° 0 mm 1 m/S 732 mmHg 74%
    05:00 +5°C° 0 mm 1 m/S 731 mmHg 74%
    06:00 +5°C° 0 mm 1 m/S 731 mmHg 73%
    07:00 +5°C° 0 mm 1 m/S 731 mmHg 70%
    08:00 +6°C° 0 mm 1 m/S 731 mmHg 66%
    09:00 +7°C° 0 mm 1 m/S 731 mmHg 63%
    10:00 +9°C° 0 mm 1 m/S 731 mmHg 57%
    11:00 +10°C° 0 mm 1 m/S 730 mmHg 51%
    12:00 +12°C° 0 mm 1 m/S 730 mmHg 45%
    13:00 +12°C° 0 mm 1 m/S 730 mmHg 45%
    14:00 +12°C° 0 mm 1 m/S 730 mmHg 46%
    15:00 +12°C° 0 mm 1 m/S 729 mmHg 46%
    16:00 +10°C° 0 mm 1 m/S 730 mmHg 53%
    17:00 +9°C° 0 mm 1 m/S 730 mmHg 59%
    18:00 +7°C° 0 mm 1 m/S 730 mmHg 66%
    19:00 +7°C° 0 mm 1 m/S 730 mmHg 68%
    20:00 +7°C° 0 mm 1 m/S 730 mmHg 69%
    21:00 +6°C° 0 mm 1 m/S 731 mmHg 71%
    22:00 +6°C° 0 mm 1 m/S 731 mmHg 72%
    23:00 +6°C° 0 mm 1 m/S 731 mmHg 73%
    Mehr zeigen